FENGYUN 1C DEB, 41011

Orbit data source: Space-Track

FENGYUN 1C DEB, 41011 is space debris in SSO originally from a launch on Mon, 10 May 1999 UTC launched from the Taiyaun Space Center, China (TSC). Fengyun 1C debris stems from the Chinese weather satellite Fengyun-1C, which was intentionally destroyed by a Chinese anti-satellite missile in 2007. This event dramatically increased the amount of space debris, with thousands of trackable fragments posing hazards to satellites and human spaceflight. The Fengyun 1C debris cloud has become a focal point in discussions about space sustainability and the need for international regulations to prevent the creation of new debris.

Loading next visibility...
Identifier
41011, 1999-025EXR
Orbit
SSO
Country
Flag of CNCN / PRC
Related business
Manufacturer
Unknown
Mission
Spacecraft
Bus & Motor
Unknown
Mass
Unknown
Launch date (UTC)
1999-05-10 (27 years ago)
Launch vehicle
Unknown
Launch site
Taiyaun Space Center, China (TSC)
Object type
Payload
Rocket body
Debris
Shape & HBR
Unknown shape, 0.1 m
Radar Cross Section
Small (<0.1 m²)

Expand to show TLE details & history
Last TLE update: 1 week ago

TLE from 1 week ago
0 FENGYUN 1C DEB
1 41011U 99025EXR 26064.60711068  .00005051  00000-0  84253-3 0  9995
2 41011  99.1548 121.0018 0308220 113.0587 250.3412 14.43620460583528
Epoch: 2026-03-05T14:34Z
TLE epoch observation values (Epoch: 2026-03-05T14:34:14.362Z)
Latitude
-0.00001°
Longitude
99.08692°
Altitude
829.299 km
Speed
7.397 km/s
True Right ascension
08h 04m 00s
True Declination
0° 00' 00"
Sunlit
Object was in full shadow at epoch
Visualization orbit readout
Latitude
Unknown
Longitude
Unknown
Altitude
Unknown
Speed
Unknown
Apparent Right ascension
Unknown
Apparent Declination
Unknown
Sunlit
N/A
Visualization observer readout
Local Sidereal Time
18:07:53
Azimuth
Unknown
Elevation
Unknown
Doppler factor
Unknown
Orbital elements
Apogee altitude
963.216 km
Perigee altitude
524.197 km
Semi-major axis
7,121.844 km
Eccentricity
0.03082
Inclination
99.1548°
RAAN
121.0018°
Arg. of periapsis
113.0587°
True anomaly
247.0595°
Mean anomaly
250.3412°
Eccentric anomaly
248.69591°
Mean motion
3.61122 °/min
Orbital period
99.69 mins
BSTAR
0.00084253
Loading maneuver chart data...
Computing Atmospheric mass density...

Documentation

Showing up to 5 results
|